Location: Newark
(0.4500°S, 90.2667°W)
Time: 11:22:46
(UTC+00:00)

Envisat - Visible Passes

Search period start: 07 December 2019 00:00
Search period end: 17 December 2019 00:00
Orbit: 764 x 766 km, 98.1° (Epoch: 07 December)

Date Brightness Start Highest point End Pass type
(mag) Time Alt. Az. Time Alt. Az. Time Alt. Az.
07 Dec 4.4 00:54:17 10° S 00:59:02 41° WSW 01:03:47 10° NNW visible
08 Dec 3.0 00:17:19 10° SSE 00:22:22 69° ENE 00:27:24 10° N visible
09 Dec 5.7 01:20:49 10° SSW 01:24:27 20° WSW 01:28:04 10° WNW visible
10 Dec 3.8 00:42:49 10° S 00:47:48 56° WSW 00:52:45 10° NNW visible
12 Dec 5.2 01:08:58 10° SSW 01:13:12 27° WSW 01:17:26 10° NW visible
13 Dec 3.2 00:31:28 10° S 00:36:32 78° WSW 00:41:36 10° NNW visible
13 Dec 6.2 11:26:08 10° ENE 11:29:01 15° ESE 11:31:56 10° SE visible
14 Dec 6.1 01:36:25 10° SW 01:38:35 13° WSW 01:40:46 10° WNW visible
15 Dec 4.7 00:57:19 10° SSW 01:01:57 36° WSW 01:06:35 10° NW visible
16 Dec 3.0 00:20:12 10° SSE 00:25:17 77° ENE 00:30:20 10° N visible
16 Dec 6.7 11:16:33 10° E 11:17:48 11° ESE 11:19:02 10° ESE visible
